UAL2943 KPIT-CYYZ

Flight info

Callsign UAL2943
Flight time N/A
Altitude 36000
Route EWC DCT OXMAN LINNG3
Aircraft B788/H-SDE1E2E3FGHIJ2J3J4J5M1RWXY/LB1D1

Departure

Time 2026-05-09 02:11
Airport Pittsburgh International Airport (KPIT)

Arrival

Time N/A
Airport Toronto Pearson International Airport (CYYZ)
Time Latitude Longitude Altitude Speed Heading
2026-05-09 01:36 40.49432 -80.24546 1163 ft 0 kts 46°
2026-05-09 01:54 40.49424 -80.24556 1158 ft 2 kts 46°
2026-05-09 01:54 40.49412 -80.24572 1157 ft 2 kts 46°
2026-05-09 01:55 40.49401 -80.24587 1156 ft 2 kts 45°
2026-05-09 01:55 40.49389 -80.24602 1156 ft 2 kts 71°
2026-05-09 01:55 40.49385 -80.24623 1156 ft 2 kts 62°
2026-05-09 01:55 40.49375 -80.24640 1156 ft 2 kts 46°
2026-05-09 01:56 40.49369 -80.24649 1154 ft 0 kts 46°
2026-05-09 02:02 40.49372 -80.24641 1156 ft 3 kts 55°
2026-05-09 02:02 40.49372 -80.24588 1152 ft 9 kts 104°
2026-05-09 02:02 40.49318 -80.24489 1155 ft 18 kts 135°
2026-05-09 02:03 40.49203 -80.24365 1155 ft 22 kts 150°
2026-05-09 02:03 40.49125 -80.24240 1155 ft 14 kts 94°
2026-05-09 02:03 40.49126 -80.24130 1155 ft 11 kts 89°
2026-05-09 02:03 40.49119 -80.24035 1155 ft 10 kts 105°
2026-05-09 02:04 40.49090 -80.23963 1155 ft 9 kts 116°
2026-05-09 02:04 40.49071 -80.23880 1155 ft 10 kts 97°
2026-05-09 02:04 40.49064 -80.23775 1152 ft 13 kts 93°
2026-05-09 02:04 40.49060 -80.23641 1155 ft 16 kts 92°
2026-05-09 02:05 40.49057 -80.23486 1154 ft 19 kts 92°
2026-05-09 02:05 40.49053 -80.23291 1154 ft 24 kts 92°
2026-05-09 02:05 40.49044 -80.23064 1152 ft 26 kts 92°
2026-05-09 02:05 40.49037 -80.22813 1152 ft 30 kts 92°
2026-05-09 02:06 40.49029 -80.22537 1150 ft 30 kts 92°
2026-05-09 02:06 40.49031 -80.22268 1148 ft 29 kts 85°
2026-05-09 02:06 40.49033 -80.22024 1151 ft 24 kts 91°
2026-05-09 02:07 40.49029 -80.21936 1150 ft 2 kts 94°
2026-05-09 02:07 40.49027 -80.21881 1152 ft 11 kts 93°
2026-05-09 02:07 40.49023 -80.21726 1151 ft 22 kts 91°
2026-05-09 02:07 40.49006 -80.21496 1150 ft 29 kts 99°
2026-05-09 02:08 40.48980 -80.21205 1151 ft 33 kts 92°
2026-05-09 02:08 40.48977 -80.21054 1148 ft 13 kts 90°
2026-05-09 02:08 40.48965 -80.20952 1150 ft 9 kts 120°
2026-05-09 02:08 40.48928 -80.20925 1152 ft 4 kts 167°
2026-05-09 02:09 40.48910 -80.20937 1150 ft 3 kts 217°
2026-05-09 02:09 40.48896 -80.20989 1151 ft 10 kts 262°
2026-05-09 02:09 40.48894 -80.21048 1147 ft 0 kts 270°
2026-05-09 02:09 40.48894 -80.21049 1147 ft 1 kts 270°
2026-05-09 02:10 40.48894 -80.21058 1147 ft 1 kts 270°
2026-05-09 02:10 40.48894 -80.21081 1148 ft 4 kts 270°
2026-05-09 02:10 40.48895 -80.21117 1148 ft 3 kts 270°
2026-05-09 02:10 40.48895 -80.21164 1148 ft 14 kts 270°
2026-05-09 02:11 40.48907 -80.21695 1150 ft 108 kts 271°
2026-05-09 02:11 40.48944 -80.23064 1368 ft 175 kts 280°
2026-05-09 02:11 40.49049 -80.24475 2951 ft 135 kts 277°
2026-05-09 02:11 40.49534 -80.25623 3871 ft 172 kts 314°
2026-05-09 02:12 40.50822 -80.26229 4370 ft 224 kts 351°
2026-05-09 02:12 40.52426 -80.26003 4942 ft 241 kts
2026-05-09 02:12 40.54117 -80.25590 5500 ft 249 kts
2026-05-09 02:12 40.55855 -80.25245 6086 ft 261 kts
2026-05-09 02:13 40.57679 -80.24985 6640 ft 263 kts 359°
2026-05-09 02:13 40.59531 -80.24724 7180 ft 272 kts
2026-05-09 02:13 40.61412 -80.24430 7730 ft 273 kts 360°
2026-05-09 02:13 40.63300 -80.24132 8276 ft 276 kts
2026-05-09 02:14 40.65215 -80.23834 8835 ft 278 kts
2026-05-09 02:14 40.67113 -80.23541 9394 ft 279 kts 360°
2026-05-09 02:14 40.69056 -80.23241 9959 ft 282 kts 360°
2026-05-09 02:14 40.71011 -80.22939 10467 ft 284 kts 360°
2026-05-09 02:15 40.72963 -80.22633 10990 ft 281 kts 359°
2026-05-09 02:15 40.74906 -80.22333 11517 ft 282 kts 359°
2026-05-09 02:15 40.76859 -80.22032 12058 ft 282 kts 359°
2026-05-09 02:15 40.78808 -80.21727 12594 ft 282 kts 359°
2026-05-09 02:16 40.80757 -80.21425 13153 ft 282 kts 359°
2026-05-09 02:16 40.82709 -80.20982 13698 ft 293 kts 13°
2026-05-09 02:16 40.84607 -80.19770 14227 ft 313 kts 19°
2026-05-09 02:16 40.86575 -80.18524 14740 ft 320 kts 18°
2026-05-09 02:17 40.88593 -80.17241 15278 ft 325 kts 19°
2026-05-09 02:17 40.90635 -80.15919 15819 ft 329 kts 19°
2026-05-09 02:17 40.92695 -80.14581 16374 ft 330 kts 19°
2026-05-09 02:17 40.94763 -80.13246 16916 ft 332 kts 18°
2026-05-09 02:18 40.96851 -80.11900 17484 ft 334 kts 18°
2026-05-09 02:18 40.98940 -80.10550 18051 ft 336 kts 18°
2026-05-09 02:18 41.01076 -80.09174 18586 ft 350 kts 18°
2026-05-09 02:18 41.03317 -80.07728 19097 ft 365 kts 19°
2026-05-09 02:19 41.05590 -80.06249 19612 ft 372 kts 19°
2026-05-09 02:19 41.07928 -80.04725 20145 ft 378 kts 18°
2026-05-09 02:19 41.10307 -80.03183 20679 ft 383 kts 18°
2026-05-09 02:19 41.12713 -80.01622 21222 ft 387 kts 18°
2026-05-09 02:20 41.15139 -80.00044 21773 ft 390 kts 17°
2026-05-09 02:20 41.17585 -79.98452 22340 ft 394 kts 17°
2026-05-09 02:20 41.20068 -79.96836 22909 ft 399 kts 17°
2026-05-09 02:20 41.22567 -79.95207 23493 ft 402 kts 16°
2026-05-09 02:21 41.25085 -79.93565 23987 ft 406 kts 16°
2026-05-09 02:21 41.27630 -79.91901 24488 ft 408 kts 16°
2026-05-09 02:21 41.30150 -79.90254 24982 ft 411 kts 16°
2026-05-09 02:21 41.32727 -79.88571 25503 ft 414 kts 16°
2026-05-09 02:22 41.35316 -79.86876 26024 ft 417 kts 15°
2026-05-09 02:22 41.37933 -79.85162 26563 ft 421 kts 15°
2026-05-09 02:22 41.40570 -79.83433 27105 ft 423 kts 15°
2026-05-09 02:22 41.43218 -79.81693 27661 ft 427 kts 15°
2026-05-09 02:23 41.45883 -79.79942 28226 ft 429 kts 15°
2026-05-09 02:23 41.48570 -79.78174 28802 ft 431 kts 14°
2026-05-09 02:23 41.50359 -79.76997 29195 ft 432 kts 14°
2026-05-09 02:23 41.53060 -79.75218 29789 ft 434 kts 14°
2026-05-09 02:24 41.55760 -79.73438 30333 ft 435 kts 14°
2026-05-09 02:24 41.59353 -79.71066 31020 ft 435 kts 13°
2026-05-09 02:24 41.62067 -79.69273 31552 ft 435 kts 13°
2026-05-09 02:24 41.64779 -79.67479 32087 ft 434 kts 13°
2026-05-09 02:25 41.67486 -79.65686 32642 ft 434 kts 13°
2026-05-09 02:25 41.69274 -79.64501 33001 ft 433 kts 13°
2026-05-09 02:25 41.71970 -79.62714 33560 ft 432 kts 12°
2026-05-09 02:25 41.74652 -79.60935 34113 ft 430 kts 12°
2026-05-09 02:26 41.77337 -79.59151 34590 ft 429 kts 13°
2026-05-09 02:26 41.80007 -79.57377 34993 ft 430 kts 13°
2026-05-09 02:26 41.83586 -79.55005 35373 ft 437 kts 13°
2026-05-09 02:26 41.86329 -79.53176 35658 ft 442 kts 14°